Time,TemperatureF,DewpointF,PressureIn,WindDirection,WindDirectionDegrees,WindSpeedMPH,WindSpeedGustMPH,Humidity,HourlyPrecipIn,Conditions,Clouds,dailyrainin,SoftwareType,DateUTC
2013-07-31 00:01:00,64.9,61.3,30.13,South,169,0.0,0.0,88,0.00,,,0.00,Wunderground v.1.15,2013-07-31 04:01:00,
2013-07-31 00:02:00,64.9,61.3,30.13,South,169,0.0,0.0,88,0.00,,,0.00,Wunderground v.1.15,2013-07-31 04:02:00,
2013-07-31 00:03:00,64.9,61.3,30.13,South,169,0.0,0.0,88,0.00,,,0.00,Wunderground v.1.15,2013-07-31 04:03:00,
2013-07-31 00:04:00,64.9,61.3,30.13,South,169,0.0,0.0,88,0.00,,,0.00,Wunderground v.1.15,2013-07-31 04:04:00,
2013-07-31 00:10:00,64.9,61.3,30.13,South,169,0.0,0.0,88,0.00,,,0.00,Wunderground v.1.15,2013-07-31 04:10:00,
2013-07-31 00:15:00,64.9,61.3,30.13,South,169,0.0,0.0,88,0.00,,,0.00,Wunderground v.1.15,2013-07-31 04:15:00,
2013-07-31 00:16:00,64.9,61.3,30.13,South,169,0.0,0.0,88,0.00,,,0.00,Wunderground v.1.15,2013-07-31 04:16:00,
2013-07-31 00:22:00,64.8,61.2,30.13,South,169,0.0,0.0,88,0.00,,,0.00,Wunderground v.1.15,2013-07-31 04:22:00,
2013-07-31 00:27:00,64.7,61.1,30.13,South,169,0.0,0.0,88,0.00,,,0.00,Wunderground v.1.15,2013-07-31 04:27:00,
2013-07-31 00:32:00,64.6,61.0,30.13,South,169,0.0,1.0,88,0.00,,,0.00,Wunderground v.1.15,2013-07-31 04:32:00,
2013-07-31 00:39:00,64.5,61.2,30.13,South,169,0.0,0.0,89,0.00,,,0.00,Wunderground v.1.15,2013-07-31 04:39:00,
2013-07-31 00:44:00,64.4,61.1,30.13,South,169,0.0,0.0,89,0.00,,,0.00,Wunderground v.1.15,2013-07-31 04:44:00,
2013-07-31 00:49:00,64.4,61.1,30.13,South,169,0.0,0.0,89,0.00,,,0.00,Wunderground v.1.15,2013-07-31 04:49:00,
2013-07-31 00:55:00,64.5,61.2,30.12,South,169,0.0,0.0,89,0.00,,,0.00,Wunderground v.1.15,2013-07-31 04:55:00,
2013-07-31 01:00:00,64.5,61.2,30.13,South,169,0.0,1.0,89,0.00,,,0.00,Wunderground v.1.15,2013-07-31 05:00:00,
2013-07-31 01:06:00,64.6,61.3,30.12,South,169,0.0,0.0,89,0.00,,,0.00,Wunderground v.1.15,2013-07-31 05:06:00,
2013-07-31 01:11:00,64.7,61.4,30.12,South,169,0.0,3.0,89,0.00,,,0.00,Wunderground v.1.15,2013-07-31 05:11:00,
2013-07-31 01:17:00,64.8,61.5,30.12,South,175,1.0,1.0,89,0.00,,,0.00,Wunderground v.1.15,2013-07-31 05:17:00,
2013-07-31 01:22:00,65.0,61.4,30.12,South,180,1.0,4.0,88,0.00,,,0.00,Wunderground v.1.15,2013-07-31 05:22:00,
2013-07-31 01:28:00,65.1,61.5,30.12,South,184,1.0,3.0,88,0.00,,,0.00,Wunderground v.1.15,2013-07-31 05:28:00,
2013-07-31 01:34:00,65.3,61.7,30.12,South,186,1.0,3.0,88,0.00,,,0.00,Wunderground v.1.15,2013-07-31 05:34:00,
2013-07-31 01:39:00,65.4,61.4,30.12,South,186,1.0,1.0,87,0.00,,,0.00,Wunderground v.1.15,2013-07-31 05:39:00,
2013-07-31 01:45:00,65.5,61.5,30.12,South,184,0.0,0.0,87,0.00,,,0.00,Wunderground v.1.15,2013-07-31 05:45:00,
2013-07-31 01:50:00,65.5,61.5,30.12,South,184,0.0,0.0,87,0.00,,,0.00,Wunderground v.1.15,2013-07-31 05:50:00,
2013-07-31 01:56:00,65.6,61.6,30.11,South,184,0.0,1.0,87,0.00,,,0.00,Wunderground v.1.15,2013-07-31 05:56:00,
2013-07-31 02:01:00,65.6,61.6,30.11,South,186,0.0,1.0,87,0.00,,,0.00,Wunderground v.1.15,2013-07-31 06:01:00,
2013-07-31 02:07:00,65.6,61.6,30.11,SSW,192,1.0,4.0,87,0.00,,,0.00,Wunderground v.1.15,2013-07-31 06:07:00,
2013-07-31 02:13:00,65.6,61.9,30.11,SSW,192,1.0,4.0,88,0.00,,,0.00,Wunderground v.1.15,2013-07-31 06:13:00,
2013-07-31 02:18:00,65.6,61.9,30.11,SSW,193,1.0,1.0,88,0.00,,,0.00,Wunderground v.1.15,2013-07-31 06:18:00,
2013-07-31 02:24:00,65.6,61.9,30.11,SSW,194,1.0,4.0,88,0.00,,,0.00,Wunderground v.1.15,2013-07-31 06:24:00,
2013-07-31 02:29:00,65.7,62.0,30.11,SSW,194,1.0,1.0,88,0.00,,,0.00,Wunderground v.1.15,2013-07-31 06:29:00,
2013-07-31 02:34:00,65.7,62.0,30.11,SSW,192,1.0,1.0,88,0.00,,,0.00,Wunderground v.1.15,2013-07-31 06:34:00,
2013-07-31 02:39:00,65.8,62.5,30.11,SSW,203,1.0,6.0,89,0.00,,,0.00,Wunderground v.1.15,2013-07-31 06:39:00,
2013-07-31 02:45:00,65.8,62.1,30.10,SSW,200,1.0,3.0,88,0.00,,,0.00,Wunderground v.1.15,2013-07-31 06:45:00,
2013-07-31 02:50:00,65.9,61.9,30.10,SSW,203,1.0,4.0,87,0.00,,,0.00,Wunderground v.1.15,2013-07-31 06:50:00,
2013-07-31 02:56:00,65.9,61.9,30.10,SSW,213,1.0,2.0,87,0.00,,,0.00,Wunderground v.1.15,2013-07-31 06:56:00,
2013-07-31 03:01:00,66.0,62.0,30.10,SW,214,1.0,4.0,87,0.00,,,0.00,Wunderground v.1.15,2013-07-31 07:01:00,
2013-07-31 03:07:00,66.0,62.0,30.11,SSW,210,2.0,2.0,87,0.00,,,0.00,Wunderground v.1.15,2013-07-31 07:07:00,
2013-07-31 03:12:00,66.0,62.0,30.11,SSW,211,1.0,3.0,87,0.00,,,0.00,Wunderground v.1.15,2013-07-31 07:12:00,
2013-07-31 03:17:00,66.0,62.0,30.11,SSW,211,1.0,2.0,87,0.00,,,0.00,Wunderground v.1.15,2013-07-31 07:17:00,
2013-07-31 03:23:00,66.0,62.0,30.10,SSW,211,1.0,2.0,87,0.00,,,0.00,Wunderground v.1.15,2013-07-31 07:23:00,
2013-07-31 03:29:00,66.1,62.1,30.10,SSW,213,1.0,1.0,87,0.00,,,0.00,Wunderground v.1.15,2013-07-31 07:29:00,
2013-07-31 03:34:00,66.1,62.1,30.10,SSW,213,1.0,3.0,87,0.00,,,0.00,Wunderground v.1.15,2013-07-31 07:34:00,
2013-07-31 03:39:00,66.1,62.1,30.10,SSW,205,1.0,2.0,87,0.00,,,0.00,Wunderground v.1.15,2013-07-31 07:39:00,
2013-07-31 03:45:00,66.1,62.1,30.10,SSW,204,1.0,1.0,87,0.00,,,0.00,Wunderground v.1.15,2013-07-31 07:45:00,
2013-07-31 03:50:00,66.1,62.1,30.10,SSW,203,1.0,1.0,87,0.00,,,0.00,Wunderground v.1.15,2013-07-31 07:50:00,
2013-07-31 03:56:00,66.0,62.0,30.10,SSW,204,0.0,0.0,87,0.00,,,0.00,Wunderground v.1.15,2013-07-31 07:56:00,
2013-07-31 04:01:00,65.9,62.2,30.10,SSW,203,0.0,2.0,88,0.00,,,0.00,Wunderground v.1.15,2013-07-31 08:01:00,
2013-07-31 04:07:00,65.9,62.2,30.10,SSW,199,1.0,3.0,88,0.00,,,0.00,Wunderground v.1.15,2013-07-31 08:07:00,
2013-07-31 04:12:00,65.9,62.2,30.10,SSW,205,2.0,5.0,88,0.00,,,0.00,Wunderground v.1.15,2013-07-31 08:12:00,
2013-07-31 04:17:00,65.9,62.2,30.10,SSW,204,1.0,3.0,88,0.00,,,0.00,Wunderground v.1.15,2013-07-31 08:17:00,
2013-07-31 04:22:00,65.9,62.6,30.10,South,176,0.0,3.0,89,0.00,,,0.00,Wunderground v.1.15,2013-07-31 08:22:00,
2013-07-31 04:28:00,65.9,62.2,30.10,South,178,0.0,0.0,88,0.00,,,0.00,Wunderground v.1.15,2013-07-31 08:28:00,
2013-07-31 04:34:00,65.9,62.6,30.10,South,184,0.0,4.0,89,0.00,,,0.00,Wunderground v.1.15,2013-07-31 08:34:00,
2013-07-31 04:39:00,65.9,62.6,30.10,South,186,1.0,4.0,89,0.00,,,0.00,Wunderground v.1.15,2013-07-31 08:39:00,
2013-07-31 04:44:00,65.9,62.6,30.10,South,186,0.0,4.0,89,0.00,,,0.00,Wunderground v.1.15,2013-07-31 08:44:00,
2013-07-31 04:49:00,65.8,62.5,30.10,South,186,0.0,0.0,89,0.00,,,0.00,Wunderground v.1.15,2013-07-31 08:49:00,
2013-07-31 04:55:00,65.8,62.5,30.10,South,186,0.0,0.0,89,0.00,,,0.00,Wunderground v.1.15,2013-07-31 08:55:00,
2013-07-31 05:00:00,65.6,62.3,30.10,NNW,334,0.0,4.0,89,0.00,,,0.00,Wunderground v.1.15,2013-07-31 09:00:00,
2013-07-31 05:06:00,65.4,62.4,30.10,NNW,333,0.0,1.0,90,0.00,,,0.00,Wunderground v.1.15,2013-07-31 09:06:00,
2013-07-31 05:11:00,65.2,62.2,30.10,NNW,331,0.0,1.0,90,0.00,,,0.00,Wunderground v.1.15,2013-07-31 09:11:00,
2013-07-31 05:17:00,65.0,62.0,30.10,NNW,331,0.0,0.0,90,0.00,,,0.00,Wunderground v.1.15,2013-07-31 09:17:00,
2013-07-31 05:22:00,64.8,62.1,30.10,NNW,331,0.0,0.0,91,0.00,,,0.00,Wunderground v.1.15,2013-07-31 09:22:00,
2013-07-31 05:28:00,64.6,61.9,30.10,NNW,331,0.0,0.0,91,0.19,,,0.01,Wunderground v.1.15,2013-07-31 09:28:00,
2013-07-31 05:33:00,64.4,61.7,30.10,NNW,331,0.0,0.0,91,0.14,,,0.03,Wunderground v.1.15,2013-07-31 09:33:00,
2013-07-31 05:39:00,64.1,61.4,30.10,NNW,331,0.0,1.0,91,0.13,,,0.04,Wunderground v.1.15,2013-07-31 09:39:00,
2013-07-31 05:44:00,63.9,61.5,30.09,NNW,337,0.0,1.0,92,0.07,,,0.04,Wunderground v.1.15,2013-07-31 09:44:00,
2013-07-31 05:50:00,63.8,61.4,30.09,NNW,337,0.0,0.0,92,0.05,,,0.04,Wunderground v.1.15,2013-07-31 09:50:00,
2013-07-31 05:55:00,63.7,61.3,30.09,NNW,337,0.0,0.0,92,0.00,,,0.04,Wunderground v.1.15,2013-07-31 09:55:00,
2013-07-31 06:00:00,63.6,61.5,30.09,NNW,337,0.0,0.0,93,0.00,,,0.04,Wunderground v.1.15,2013-07-31 10:00:00,
2013-07-31 06:06:00,63.6,61.5,30.09,NNW,337,0.0,0.0,93,0.00,,,0.04,Wunderground v.1.15,2013-07-31 10:06:00,
2013-07-31 06:12:00,63.5,61.4,30.09,NNW,337,0.0,0.0,93,0.00,,,0.04,Wunderground v.1.15,2013-07-31 10:12:00,
2013-07-31 06:17:00,63.5,61.4,30.09,NNW,337,0.0,0.0,93,0.00,,,0.04,Wunderground v.1.15,2013-07-31 10:17:00,
2013-07-31 06:22:00,63.4,61.3,30.09,NNW,337,0.0,0.0,93,0.00,,,0.04,Wunderground v.1.15,2013-07-31 10:22:00,
2013-07-31 06:28:00,63.4,61.6,30.09,NNW,337,0.0,0.0,94,0.00,,,0.04,Wunderground v.1.15,2013-07-31 10:28:00,
2013-07-31 06:33:00,63.4,61.6,30.09,NNW,337,0.0,0.0,94,0.00,,,0.04,Wunderground v.1.15,2013-07-31 10:33:00,
2013-07-31 06:39:00,63.4,61.6,30.09,NNW,337,0.0,0.0,94,0.00,,,0.04,Wunderground v.1.15,2013-07-31 10:39:00,
2013-07-31 06:44:00,63.4,61.6,30.09,NNW,337,0.0,0.0,94,0.00,,,0.04,Wunderground v.1.15,2013-07-31 10:44:00,
2013-07-31 06:49:00,63.4,61.6,30.09,NNW,337,0.0,0.0,94,0.00,,,0.04,Wunderground v.1.15,2013-07-31 10:49:00,
2013-07-31 06:55:00,63.5,61.7,30.09,NNW,337,0.0,0.0,94,0.00,,,0.04,Wunderground v.1.15,2013-07-31 10:55:00,
2013-07-31 07:00:00,63.5,61.7,30.09,NNW,337,0.0,0.0,94,0.00,,,0.04,Wunderground v.1.15,2013-07-31 11:00:00,
2013-07-31 07:05:00,63.6,61.8,30.09,NNW,337,0.0,0.0,94,0.00,,,0.04,Wunderground v.1.15,2013-07-31 11:05:00,
2013-07-31 07:11:00,63.7,61.9,30.09,NNW,337,0.0,0.0,94,0.00,,,0.04,Wunderground v.1.15,2013-07-31 11:11:00,
2013-07-31 07:17:00,63.7,61.9,30.09,NNW,337,0.0,0.0,94,0.00,,,0.04,Wunderground v.1.15,2013-07-31 11:17:00,
2013-07-31 07:22:00,63.7,61.9,30.09,NNW,337,0.0,0.0,94,0.00,,,0.04,Wunderground v.1.15,2013-07-31 11:22:00,
2013-07-31 07:27:00,63.8,62.0,30.09,NNW,337,0.0,0.0,94,0.00,,,0.04,Wunderground v.1.15,2013-07-31 11:27:00,
2013-07-31 07:34:00,63.9,62.1,30.09,NNW,337,0.0,0.0,94,0.00,,,0.04,Wunderground v.1.15,2013-07-31 11:34:00,
2013-07-31 07:40:00,64.0,62.2,30.09,NNW,337,0.0,0.0,94,0.00,,,0.04,Wunderground v.1.15,2013-07-31 11:40:00,
2013-07-31 07:45:00,64.1,62.3,30.09,NNW,337,0.0,0.0,94,0.00,,,0.04,Wunderground v.1.15,2013-07-31 11:45:00,
2013-07-31 07:51:00,64.3,62.8,30.09,NNW,337,0.0,0.0,95,0.00,,,0.04,Wunderground v.1.15,2013-07-31 11:51:00,
2013-07-31 07:57:00,64.4,62.9,30.08,NNW,337,0.0,0.0,95,0.00,,,0.04,Wunderground v.1.15,2013-07-31 11:57:00,
2013-07-31 08:02:00,64.6,63.1,30.08,NNW,337,0.0,0.0,95,0.00,,,0.04,Wunderground v.1.15,2013-07-31 12:02:00,
2013-07-31 08:07:00,64.7,63.2,30.08,NNW,337,0.0,0.0,95,0.00,,,0.04,Wunderground v.1.15,2013-07-31 12:07:00,
2013-07-31 08:12:00,64.7,63.2,30.09,NNW,337,0.0,0.0,95,0.00,,,0.04,Wunderground v.1.15,2013-07-31 12:12:00,
2013-07-31 08:19:00,64.8,63.3,30.09,NNW,337,0.0,0.0,95,0.00,,,0.04,Wunderground v.1.15,2013-07-31 12:19:00,
2013-07-31 08:24:00,64.9,63.4,30.09,NNW,337,0.0,0.0,95,0.00,,,0.04,Wunderground v.1.15,2013-07-31 12:24:00,
2013-07-31 08:30:00,65.0,63.5,30.08,NNW,337,0.0,0.0,95,0.00,,,0.04,Wunderground v.1.15,2013-07-31 12:30:00,
2013-07-31 08:36:00,65.0,63.5,30.08,NNW,337,0.0,0.0,95,0.00,,,0.04,Wunderground v.1.15,2013-07-31 12:36:00,
2013-07-31 08:41:00,65.0,63.2,30.08,NNW,337,0.0,0.0,94,0.00,,,0.04,Wunderground v.1.15,2013-07-31 12:41:00,
2013-07-31 08:47:00,65.0,63.5,30.08,NNW,337,0.0,0.0,95,0.00,,,0.04,Wunderground v.1.15,2013-07-31 12:47:00,
2013-07-31 08:52:00,65.1,63.3,30.08,NNW,337,0.0,0.0,94,0.00,,,0.04,Wunderground v.1.15,2013-07-31 12:52:00,
2013-07-31 08:58:00,65.1,63.3,30.08,NNW,337,0.0,0.0,94,0.00,,,0.04,Wunderground v.1.15,2013-07-31 12:58:00,
2013-07-31 09:04:00,65.2,63.4,30.08,NNW,337,0.0,0.0,94,0.00,,,0.04,Wunderground v.1.15,2013-07-31 13:04:00,
2013-07-31 09:10:00,65.3,63.5,30.08,NNW,337,0.0,0.0,94,0.00,,,0.04,Wunderground v.1.15,2013-07-31 13:10:00,
2013-07-31 09:15:00,65.4,63.6,30.07,NNW,337,0.0,0.0,94,0.00,,,0.04,Wunderground v.1.15,2013-07-31 13:15:00,
2013-07-31 09:21:00,65.5,64.0,30.07,NNW,337,0.0,0.0,95,0.00,,,0.04,Wunderground v.1.15,2013-07-31 13:21:00,
2013-07-31 09:27:00,65.5,63.7,30.07,NNW,337,0.0,0.0,94,0.00,,,0.04,Wunderground v.1.15,2013-07-31 13:27:00,
2013-07-31 09:32:00,65.5,63.7,30.07,NNW,337,0.0,0.0,94,0.00,,,0.04,Wunderground v.1.15,2013-07-31 13:32:00,
2013-07-31 09:37:00,65.6,63.8,30.07,NNW,337,0.0,0.0,94,0.00,,,0.04,Wunderground v.1.15,2013-07-31 13:37:00,
2013-07-31 09:42:00,65.7,63.9,30.07,NNW,337,0.0,0.0,94,0.00,,,0.04,Wunderground v.1.15,2013-07-31 13:42:00,
2013-07-31 09:48:00,65.9,64.1,30.07,NNW,337,0.0,0.0,94,0.00,,,0.04,Wunderground v.1.15,2013-07-31 13:48:00,
2013-07-31 09:54:00,66.1,64.6,30.07,NNW,337,0.0,1.0,95,0.00,,,0.04,Wunderground v.1.15,2013-07-31 13:54:00,
2013-07-31 10:00:00,66.1,64.3,30.07,NNW,334,0.0,1.0,94,0.00,,,0.04,Wunderground v.1.15,2013-07-31 14:00:00,
2013-07-31 10:06:00,66.2,64.4,30.07,NNW,334,0.0,0.0,94,0.00,,,0.04,Wunderground v.1.15,2013-07-31 14:06:00,
2013-07-31 10:12:00,66.2,64.4,30.07,NNW,334,0.0,0.0,94,0.00,,,0.04,Wunderground v.1.15,2013-07-31 14:12:00,
2013-07-31 10:18:00,66.3,64.5,30.07,NNW,334,0.0,0.0,94,0.00,,,0.04,Wunderground v.1.15,2013-07-31 14:18:00,
2013-07-31 10:24:00,66.5,64.7,30.07,NNW,334,0.0,0.0,94,0.00,,,0.04,Wunderground v.1.15,2013-07-31 14:24:00,
2013-07-31 10:29:00,66.5,64.7,30.07,NW,315,0.0,3.0,94,0.00,,,0.04,Wunderground v.1.15,2013-07-31 14:29:00,
2013-07-31 10:34:00,66.5,64.4,30.07,WNW,283,1.0,3.0,93,0.00,,,0.04,Wunderground v.1.15,2013-07-31 14:34:00,
2013-07-31 10:40:00,66.6,64.5,30.07,West,281,0.0,1.0,93,0.00,,,0.04,Wunderground v.1.15,2013-07-31 14:40:00,
2013-07-31 10:46:00,66.6,64.5,30.07,West,279,0.0,0.0,93,0.00,,,0.05,Wunderground v.1.15,2013-07-31 14:46:00,
2013-07-31 10:51:00,66.6,64.5,30.07,West,273,0.0,3.0,93,0.00,,,0.05,Wunderground v.1.15,2013-07-31 14:51:00,
2013-07-31 10:56:00,66.5,64.1,30.07,West,273,0.0,0.0,92,0.00,,,0.05,Wunderground v.1.15,2013-07-31 14:56:00,
2013-07-31 11:01:00,66.4,64.0,30.08,West,273,0.0,1.0,92,0.00,,,0.05,Wunderground v.1.15,2013-07-31 15:01:00,
2013-07-31 11:06:00,66.3,63.9,30.08,West,273,0.0,0.0,92,0.00,,,0.05,Wunderground v.1.15,2013-07-31 15:06:00,
2013-07-31 11:12:00,66.2,63.8,30.08,West,273,0.0,0.0,92,0.00,,,0.05,Wunderground v.1.15,2013-07-31 15:12:00,
2013-07-31 11:17:00,66.2,63.8,30.08,West,273,0.0,0.0,92,0.18,,,0.07,Wunderground v.1.15,2013-07-31 15:17:00,
2013-07-31 11:22:00,66.1,63.7,30.08,West,273,0.0,0.0,92,0.09,,,0.07,Wunderground v.1.15,2013-07-31 15:22:00,
2013-07-31 11:28:00,66.0,63.6,30.08,West,273,0.0,0.0,92,0.05,,,0.07,Wunderground v.1.15,2013-07-31 15:28:00,
2013-07-31 11:34:00,65.9,63.5,30.08,West,273,0.0,0.0,92,0.00,,,0.07,Wunderground v.1.15,2013-07-31 15:34:00,
2013-07-31 11:39:00,65.9,63.8,30.07,West,273,0.0,0.0,93,0.00,,,0.07,Wunderground v.1.15,2013-07-31 15:39:00,
2013-07-31 11:45:00,66.0,63.9,30.07,West,273,0.0,0.0,93,0.00,,,0.07,Wunderground v.1.15,2013-07-31 15:45:00,
2013-07-31 11:51:00,66.0,63.9,30.07,West,273,0.0,0.0,93,0.00,,,0.07,Wunderground v.1.15,2013-07-31 15:51:00,
2013-07-31 11:56:00,65.9,63.8,30.07,West,273,0.0,0.0,93,0.00,,,0.07,Wunderground v.1.15,2013-07-31 15:56:00,
2013-07-31 12:01:00,65.9,63.5,30.07,West,273,0.0,0.0,92,0.00,,,0.08,Wunderground v.1.15,2013-07-31 16:01:00,
2013-07-31 12:07:00,66.0,63.3,30.06,West,273,0.0,0.0,91,0.00,,,0.08,Wunderground v.1.15,2013-07-31 16:07:00,
2013-07-31 12:12:00,66.1,63.4,30.06,West,273,0.0,0.0,91,0.06,,,0.09,Wunderground v.1.15,2013-07-31 16:12:00,
2013-07-31 12:17:00,66.4,64.0,30.05,West,273,0.0,0.0,92,0.06,,,0.09,Wunderground v.1.15,2013-07-31 16:17:00,
2013-07-31 12:23:00,66.6,64.2,30.05,West,273,0.0,0.0,92,0.05,,,0.09,Wunderground v.1.15,2013-07-31 16:23:00,
2013-07-31 12:28:00,66.6,63.9,30.05,West,273,0.0,0.0,91,0.00,,,0.09,Wunderground v.1.15,2013-07-31 16:28:00,
2013-07-31 12:34:00,66.6,63.6,30.05,West,273,0.0,0.0,90,0.00,,,0.09,Wunderground v.1.15,2013-07-31 16:34:00,
2013-07-31 12:39:00,66.8,63.8,30.05,West,272,0.0,0.0,90,0.00,,,0.09,Wunderground v.1.15,2013-07-31 16:39:00,
2013-07-31 12:45:00,67.0,63.6,30.05,West,260,0.0,0.0,89,0.00,,,0.09,Wunderground v.1.15,2013-07-31 16:45:00,
2013-07-31 12:50:00,67.0,63.6,30.04,West,260,0.0,0.0,89,0.00,,,0.09,Wunderground v.1.15,2013-07-31 16:50:00,
2013-07-31 12:55:00,67.1,64.1,30.04,SW,222,0.0,3.0,90,0.00,,,0.09,Wunderground v.1.15,2013-07-31 16:55:00,
2013-07-31 13:00:00,67.1,63.7,30.04,SW,218,1.0,3.0,89,0.00,,,0.09,Wunderground v.1.15,2013-07-31 17:00:00,
2013-07-31 13:06:00,67.6,64.9,30.03,SW,214,0.0,1.0,91,0.00,,,0.09,Wunderground v.1.15,2013-07-31 17:06:00,
2013-07-31 13:11:00,67.9,64.9,30.03,SW,214,0.0,1.0,90,0.00,,,0.09,Wunderground v.1.15,2013-07-31 17:11:00,
2013-07-31 13:16:00,68.3,65.3,30.02,South,190,0.0,0.0,90,0.00,,,0.09,Wunderground v.1.15,2013-07-31 17:16:00,
2013-07-31 13:22:00,68.5,64.8,30.03,South,169,1.0,1.0,88,0.00,,,0.09,Wunderground v.1.15,2013-07-31 17:22:00,
2013-07-31 13:27:00,68.5,64.5,30.02,SSE,163,0.0,1.0,87,0.00,,,0.09,Wunderground v.1.15,2013-07-31 17:27:00,
2013-07-31 13:32:00,68.6,64.6,30.02,SSE,163,0.0,1.0,87,0.00,,,0.09,Wunderground v.1.15,2013-07-31 17:32:00,
2013-07-31 13:38:00,68.7,64.7,30.02,SSE,155,0.0,0.0,87,0.00,,,0.09,Wunderground v.1.15,2013-07-31 17:38:00,
2013-07-31 13:44:00,68.6,64.6,30.02,SSE,155,0.0,0.0,87,0.00,,,0.09,Wunderground v.1.15,2013-07-31 17:44:00,
2013-07-31 13:49:00,68.5,64.5,30.02,SSE,155,0.0,0.0,87,0.00,,,0.09,Wunderground v.1.15,2013-07-31 17:49:00,
2013-07-31 13:55:00,68.3,64.3,30.01,SSE,155,0.0,0.0,87,0.00,,,0.09,Wunderground v.1.15,2013-07-31 17:55:00,
2013-07-31 14:01:00,68.1,64.4,30.02,SSE,155,0.0,0.0,88,0.00,,,0.09,Wunderground v.1.15,2013-07-31 18:01:00,
2013-07-31 14:07:00,68.1,64.4,30.01,SSE,155,0.0,0.0,88,0.00,,,0.09,Wunderground v.1.15,2013-07-31 18:07:00,
2013-07-31 14:12:00,67.9,63.9,30.01,SSE,155,0.0,0.0,87,0.00,,,0.09,Wunderground v.1.15,2013-07-31 18:12:00,
2013-07-31 14:18:00,67.8,63.8,30.01,SSE,155,0.0,0.0,87,0.00,,,0.09,Wunderground v.1.15,2013-07-31 18:18:00,
2013-07-31 14:23:00,67.9,64.2,30.01,SSE,155,0.0,1.0,88,0.00,,,0.09,Wunderground v.1.15,2013-07-31 18:23:00,
2013-07-31 14:29:00,68.0,64.6,30.01,SSE,155,0.0,0.0,89,0.00,,,0.09,Wunderground v.1.15,2013-07-31 18:29:00,
2013-07-31 14:35:00,68.1,64.7,30.00,SSE,154,0.0,1.0,89,0.00,,,0.09,Wunderground v.1.15,2013-07-31 18:35:00,
2013-07-31 14:40:00,68.2,64.8,30.00,SSE,153,0.0,0.0,89,0.00,,,0.09,Wunderground v.1.15,2013-07-31 18:40:00,
2013-07-31 14:46:00,68.1,64.7,30.00,SSE,150,0.0,0.0,89,0.00,,,0.09,Wunderground v.1.15,2013-07-31 18:46:00,
2013-07-31 14:51:00,68.0,64.6,30.00,SE,142,1.0,1.0,89,0.00,,,0.09,Wunderground v.1.15,2013-07-31 18:51:00,
2013-07-31 14:57:00,67.9,64.5,30.00,SE,142,0.0,0.0,89,0.00,,,0.10,Wunderground v.1.15,2013-07-31 18:57:00,
2013-07-31 15:02:00,67.9,64.9,30.00,SE,141,0.0,0.0,90,0.00,,,0.10,Wunderground v.1.15,2013-07-31 19:02:00,
2013-07-31 15:07:00,67.9,64.9,30.00,SE,142,0.0,0.0,90,0.05,,,0.11,Wunderground v.1.15,2013-07-31 19:07:00,
2013-07-31 15:12:00,67.9,65.2,30.00,SE,140,0.0,2.0,91,0.05,,,0.11,Wunderground v.1.15,2013-07-31 19:12:00,
2013-07-31 15:17:00,67.7,65.0,30.00,SE,127,1.0,1.0,91,0.06,,,0.12,Wunderground v.1.15,2013-07-31 19:17:00,
2013-07-31 15:23:00,67.5,64.8,30.00,SE,127,1.0,2.0,91,0.09,,,0.13,Wunderground v.1.15,2013-07-31 19:23:00,
2013-07-31 15:28:00,67.3,64.9,29.99,ESE,123,0.0,0.0,92,0.27,,,0.14,Wunderground v.1.15,2013-07-31 19:28:00,
2013-07-31 15:33:00,67.0,64.6,29.99,ESE,121,1.0,3.0,92,0.12,,,0.15,Wunderground v.1.15,2013-07-31 19:33:00,
2013-07-31 15:39:00,66.7,64.3,29.99,ESE,121,1.0,1.0,92,0.08,,,0.16,Wunderground v.1.15,2013-07-31 19:39:00,
2013-07-31 15:45:00,66.5,64.4,29.99,ESE,116,1.0,4.0,93,0.12,,,0.17,Wunderground v.1.15,2013-07-31 19:45:00,
2013-07-31 15:50:00,66.3,64.2,29.98,ESE,115,1.0,1.0,93,0.09,,,0.18,Wunderground v.1.15,2013-07-31 19:50:00,
2013-07-31 15:55:00,66.2,64.1,29.98,ESE,115,1.0,1.0,93,0.07,,,0.18,Wunderground v.1.15,2013-07-31 19:55:00,
2013-07-31 16:01:00,66.2,64.4,29.97,ESE,115,0.0,0.0,94,0.18,,,0.20,Wunderground v.1.15,2013-07-31 20:01:00,
2013-07-31 16:07:00,66.2,64.4,29.97,ESE,116,0.0,0.0,94,0.14,,,0.21,Wunderground v.1.15,2013-07-31 20:07:00,
2013-07-31 16:12:00,66.3,64.5,29.97,ESE,116,0.0,0.0,94,0.17,,,0.23,Wunderground v.1.15,2013-07-31 20:12:00,
2013-07-31 16:17:00,66.3,64.5,29.97,ESE,116,0.0,0.0,94,0.16,,,0.24,Wunderground v.1.15,2013-07-31 20:17:00,
2013-07-31 16:23:00,66.3,64.5,29.97,ESE,116,0.0,0.0,94,0.08,,,0.24,Wunderground v.1.15,2013-07-31 20:23:00,
2013-07-31 16:29:00,66.2,64.4,29.97,ESE,116,0.0,0.0,94,0.07,,,0.25,Wunderground v.1.15,2013-07-31 20:29:00,
2013-07-31 16:35:00,66.0,64.2,29.97,ESE,116,0.0,0.0,94,0.06,,,0.26,Wunderground v.1.15,2013-07-31 20:35:00,
2013-07-31 16:40:00,65.8,64.0,29.97,ESE,116,0.0,2.0,94,0.14,,,0.27,Wunderground v.1.15,2013-07-31 20:40:00,
2013-07-31 16:46:00,65.7,63.9,29.97,ESE,115,0.0,0.0,94,0.10,,,0.28,Wunderground v.1.15,2013-07-31 20:46:00,
2013-07-31 16:51:00,65.7,63.9,29.96,ESE,115,0.0,0.0,94,0.07,,,0.28,Wunderground v.1.15,2013-07-31 20:51:00,
2013-07-31 16:57:00,65.8,64.0,29.96,ESE,115,0.0,0.0,94,0.04,,,0.28,Wunderground v.1.15,2013-07-31 20:57:00,
2013-07-31 17:03:00,65.9,64.1,29.96,ESE,115,0.0,0.0,94,0.11,,,0.30,Wunderground v.1.15,2013-07-31 21:03:00,
2013-07-31 17:08:00,66.0,64.2,29.96,ESE,115,0.0,0.0,94,0.31,,,0.32,Wunderground v.1.15,2013-07-31 21:08:00,
2013-07-31 17:14:00,66.1,64.3,29.96,ESE,115,0.0,0.0,94,0.28,,,0.34,Wunderground v.1.15,2013-07-31 21:14:00,
2013-07-31 17:19:00,66.0,64.2,29.96,ESE,115,0.0,2.0,94,0.26,,,0.36,Wunderground v.1.15,2013-07-31 21:19:00,
2013-07-31 17:25:00,66.0,64.2,29.96,ESE,115,0.0,2.0,94,0.15,,,0.37,Wunderground v.1.15,2013-07-31 21:25:00,
2013-07-31 17:30:00,66.1,64.6,29.95,ESE,115,0.0,0.0,95,0.09,,,0.38,Wunderground v.1.15,2013-07-31 21:30:00,
2013-07-31 17:36:00,66.2,64.7,29.95,ESE,116,0.0,0.0,95,0.11,,,0.39,Wunderground v.1.15,2013-07-31 21:36:00,
2013-07-31 17:41:00,66.3,64.8,29.95,ESE,116,0.0,0.0,95,0.15,,,0.40,Wunderground v.1.15,2013-07-31 21:41:00,
2013-07-31 17:46:00,66.3,64.8,29.96,ESE,116,0.0,0.0,95,0.32,,,0.42,Wunderground v.1.15,2013-07-31 21:46:00,
2013-07-31 17:52:00,66.5,65.0,29.95,ESE,116,0.0,0.0,95,0.37,,,0.45,Wunderground v.1.15,2013-07-31 21:52:00,
2013-07-31 17:57:00,66.6,65.1,29.95,ESE,115,0.0,0.0,95,0.44,,,0.49,Wunderground v.1.15,2013-07-31 21:57:00,
2013-07-31 18:02:00,66.6,65.1,29.95,ESE,116,0.0,0.0,95,0.16,,,0.50,Wunderground v.1.15,2013-07-31 22:02:00,
2013-07-31 18:08:00,66.4,64.9,29.95,ESE,116,0.0,0.0,95,0.16,,,0.52,Wunderground v.1.15,2013-07-31 22:08:00,
2013-07-31 18:14:00,66.3,64.8,29.95,ESE,115,0.0,0.0,95,0.10,,,0.53,Wunderground v.1.15,2013-07-31 22:14:00,
2013-07-31 18:19:00,66.3,64.8,29.95,ESE,116,0.0,0.0,95,0.10,,,0.54,Wunderground v.1.15,2013-07-31 22:19:00,
2013-07-31 18:25:00,66.3,64.8,29.94,ESE,116,0.0,0.0,95,0.29,,,0.56,Wunderground v.1.15,2013-07-31 22:25:00,
2013-07-31 18:30:00,66.3,64.8,29.94,ESE,116,0.0,0.0,95,0.11,,,0.56,Wunderground v.1.15,2013-07-31 22:30:00,
2013-07-31 18:36:00,66.3,64.8,29.93,ESE,116,0.0,0.0,95,0.09,,,0.57,Wunderground v.1.15,2013-07-31 22:36:00,
2013-07-31 18:41:00,66.3,64.8,29.93,ESE,116,0.0,0.0,95,0.07,,,0.58,Wunderground v.1.15,2013-07-31 22:41:00,
2013-07-31 18:46:00,66.4,64.9,29.93,ESE,115,0.0,0.0,95,0.07,,,0.58,Wunderground v.1.15,2013-07-31 22:46:00,
2013-07-31 18:51:00,66.5,65.0,29.93,ESE,116,0.0,0.0,95,0.08,,,0.59,Wunderground v.1.15,2013-07-31 22:51:00,
2013-07-31 18:57:00,66.6,65.1,29.92,ESE,116,0.0,0.0,95,0.08,,,0.60,Wunderground v.1.15,2013-07-31 22:57:00,
2013-07-31 19:02:00,66.7,65.2,29.92,ESE,116,0.0,0.0,95,0.08,,,0.60,Wunderground v.1.15,2013-07-31 23:02:00,
2013-07-31 19:08:00,66.6,65.1,29.92,ESE,116,0.0,0.0,95,0.05,,,0.60,Wunderground v.1.15,2013-07-31 23:08:00,
2013-07-31 19:13:00,66.5,65.0,29.92,ESE,116,0.0,0.0,95,0.00,,,0.60,Wunderground v.1.15,2013-07-31 23:13:00,
2013-07-31 19:18:00,66.4,64.9,29.92,ESE,115,0.0,0.0,95,0.00,,,0.61,Wunderground v.1.15,2013-07-31 23:18:00,
2013-07-31 19:24:00,66.4,64.9,29.92,ESE,116,0.0,0.0,95,0.00,,,0.61,Wunderground v.1.15,2013-07-31 23:24:00,
2013-07-31 19:29:00,66.4,64.9,29.92,ESE,115,0.0,0.0,95,0.00,,,0.61,Wunderground v.1.15,2013-07-31 23:29:00,
2013-07-31 19:35:00,66.4,64.9,29.92,ESE,115,0.0,0.0,95,0.00,,,0.61,Wunderground v.1.15,2013-07-31 23:35:00,
2013-07-31 19:41:00,66.4,64.9,29.92,ESE,115,0.0,0.0,95,0.00,,,0.61,Wunderground v.1.15,2013-07-31 23:41:00,
2013-07-31 19:46:00,66.4,64.9,29.92,ESE,116,0.0,0.0,95,0.00,,,0.61,Wunderground v.1.15,2013-07-31 23:46:00,
2013-07-31 19:51:00,66.3,64.8,29.92,ESE,115,0.0,0.0,95,0.00,,,0.61,Wunderground v.1.15,2013-07-31 23:51:00,
2013-07-31 19:57:00,66.3,64.8,29.92,ESE,115,0.0,0.0,95,0.00,,,0.61,Wunderground v.1.15,2013-07-31 23:57:00,
2013-07-31 20:03:00,66.3,64.8,29.92,ESE,115,0.0,1.0,95,0.00,,,0.61,Wunderground v.1.15,2013-08-01 00:03:00,
2013-07-31 20:08:00,66.3,64.8,29.92,ESE,116,0.0,0.0,95,0.00,,,0.61,Wunderground v.1.15,2013-08-01 00:08:00,
2013-07-31 20:13:00,66.3,64.8,29.91,ESE,116,0.0,0.0,95,0.00,,,0.61,Wunderground v.1.15,2013-08-01 00:13:00,
2013-07-31 20:18:00,66.2,64.7,29.92,ESE,116,0.0,0.0,95,0.00,,,0.61,Wunderground v.1.15,2013-08-01 00:18:00,
2013-07-31 20:24:00,66.2,64.7,29.91,ESE,115,0.0,0.0,95,0.00,,,0.61,Wunderground v.1.15,2013-08-01 00:24:00,
2013-07-31 20:29:00,66.2,64.7,29.91,ESE,116,0.0,0.0,95,0.00,,,0.61,Wunderground v.1.15,2013-08-01 00:29:00,
2013-07-31 20:35:00,66.2,64.7,29.91,ESE,116,0.0,0.0,95,0.00,,,0.61,Wunderground v.1.15,2013-08-01 00:35:00,
2013-07-31 20:40:00,66.2,64.7,29.91,ESE,116,0.0,0.0,95,0.00,,,0.61,Wunderground v.1.15,2013-08-01 00:40:00,
2013-07-31 20:45:00,66.2,64.7,29.91,ESE,116,0.0,0.0,95,0.00,,,0.62,Wunderground v.1.15,2013-08-01 00:45:00,
2013-07-31 20:51:00,66.2,64.7,29.91,ESE,115,0.0,0.0,95,0.00,,,0.62,Wunderground v.1.15,2013-08-01 00:51:00,
2013-07-31 20:56:00,66.2,64.7,29.91,ESE,116,0.0,0.0,95,0.07,,,0.63,Wunderground v.1.15,2013-08-01 00:56:00,
2013-07-31 21:01:00,66.2,64.7,29.91,ESE,116,0.0,0.0,95,0.06,,,0.63,Wunderground v.1.15,2013-08-01 01:01:00,
2013-07-31 21:06:00,66.2,65.0,29.91,ESE,116,0.0,0.0,96,0.05,,,0.64,Wunderground v.1.15,2013-08-01 01:06:00,
2013-07-31 21:12:00,66.3,65.1,29.91,ESE,115,0.0,0.0,96,0.12,,,0.65,Wunderground v.1.15,2013-08-01 01:12:00,
2013-07-31 21:18:00,66.3,65.1,29.91,ESE,116,0.0,0.0,96,0.06,,,0.65,Wunderground v.1.15,2013-08-01 01:18:00,
2013-07-31 21:23:00,66.3,65.1,29.91,ESE,116,0.0,0.0,96,0.04,,,0.65,Wunderground v.1.15,2013-08-01 01:23:00,
2013-07-31 21:28:00,66.3,65.1,29.91,ESE,116,0.0,1.0,96,0.00,,,0.65,Wunderground v.1.15,2013-08-01 01:28:00,
2013-07-31 21:34:00,66.2,64.7,29.92,NNW,334,1.0,4.0,95,0.00,,,0.66,Wunderground v.1.15,2013-08-01 01:34:00,
2013-07-31 21:39:00,65.9,64.4,29.92,North,355,2.0,6.0,95,0.00,,,0.66,Wunderground v.1.15,2013-08-01 01:39:00,
2013-07-31 21:45:00,65.7,64.2,29.91,North,5,2.0,6.0,95,0.00,,,0.66,Wunderground v.1.15,2013-08-01 01:45:00,
2013-07-31 21:46:00,65.7,64.2,29.91,North,5,2.0,2.0,95,0.00,,,0.66,Wunderground v.1.15,2013-08-01 01:46:00,
2013-07-31 21:52:00,65.6,64.1,29.91,North,5,1.0,4.0,95,0.00,,,0.66,Wunderground v.1.15,2013-08-01 01:52:00,
2013-07-31 21:57:00,65.5,64.0,29.92,North,360,1.0,1.0,95,0.00,,,0.66,Wunderground v.1.15,2013-08-01 01:57:00,
2013-07-31 22:02:00,65.5,64.0,29.92,North,355,1.0,3.0,95,0.00,,,0.66,Wunderground v.1.15,2013-08-01 02:02:00,
2013-07-31 22:21:00,65.3,63.8,29.91,NNW,333,1.0,1.0,95,0.00,,,0.66,Wunderground v.1.15,2013-08-01 02:21:00,
2013-07-31 22:26:00,65.2,63.7,29.91,North,355,1.0,4.0,95,0.00,,,0.66,Wunderground v.1.15,2013-08-01 02:26:00,
2013-07-31 22:31:00,65.1,63.6,29.91,NNW,333,1.0,1.0,95,0.00,,,0.66,Wunderground v.1.15,2013-08-01 02:31:00,
2013-07-31 22:37:00,65.0,63.5,29.91,NNW,344,1.0,2.0,95,0.00,,,0.66,Wunderground v.1.15,2013-08-01 02:37:00,
2013-07-31 22:42:00,64.9,63.4,29.91,NNW,342,1.0,4.0,95,0.00,,,0.66,Wunderground v.1.15,2013-08-01 02:42:00,
2013-07-31 22:48:00,64.8,63.3,29.91,NNW,341,1.0,5.0,95,0.00,,,0.66,Wunderground v.1.15,2013-08-01 02:48:00,
2013-07-31 22:53:00,64.8,63.3,29.91,North,349,1.0,6.0,95,0.00,,,0.66,Wunderground v.1.15,2013-08-01 02:53:00,
2013-07-31 22:59:00,64.7,63.2,29.92,NNW,338,1.0,1.0,95,0.00,,,0.66,Wunderground v.1.15,2013-08-01 02:59:00,
2013-07-31 23:05:00,64.7,63.2,29.91,NNW,348,1.0,3.0,95,0.00,,,0.66,Wunderground v.1.15,2013-08-01 03:05:00,
2013-07-31 23:10:00,64.6,63.1,29.91,NNW,336,2.0,6.0,95,0.00,,,0.66,Wunderground v.1.15,2013-08-01 03:10:00,
2013-07-31 23:16:00,64.5,63.3,29.91,NNW,348,2.0,2.0,96,0.00,,,0.66,Wunderground v.1.15,2013-08-01 03:16:00,
2013-07-31 23:21:00,64.5,63.3,29.91,NNW,336,1.0,4.0,96,0.00,,,0.66,Wunderground v.1.15,2013-08-01 03:21:00,
2013-07-31 23:26:00,64.4,63.2,29.91,NNW,335,1.0,1.0,96,0.00,,,0.66,Wunderground v.1.15,2013-08-01 03:26:00,
2013-07-31 23:32:00,64.4,63.2,29.91,NNW,330,0.0,3.0,96,0.00,,,0.66,Wunderground v.1.15,2013-08-01 03:32:00,
2013-07-31 23:38:00,64.4,63.2,29.90,NNW,331,0.0,0.0,96,0.00,,,0.66,Wunderground v.1.15,2013-08-01 03:38:00,
2013-07-31 23:43:00,64.3,63.1,29.90,NNW,334,0.0,2.0,96,0.00,,,0.66,Wunderground v.1.15,2013-08-01 03:43:00,
2013-07-31 23:48:00,64.3,63.1,29.90,North,355,1.0,1.0,96,0.00,,,0.66,Wunderground v.1.15,2013-08-01 03:48:00,
2013-07-31 23:54:00,64.2,63.0,29.90,North,355,0.0,1.0,96,0.00,,,0.66,Wunderground v.1.15,2013-08-01 03:54:00,
2013-07-31 23:59:00,64.2,62.7,29.90,North,351,1.0,3.0,95,0.00,,,0.00,Wunderground v.1.15,2013-08-01 03:59:00,